Theta_e
319 318 319 328 337 335 341 346 346 344 343 344 344 348 348 349 351 348 344 345 341 326 324 325 322 325 336 338 336 332 329 322 324 325 325 325 327 324 327 329 329 330 329 328 328 330 325 322 321
318 317 323 334 338 339 338 346 347 341 339 343 344 347 346 344 344 343 345 343 336 331 324 323 323 327 336 338 337 332 328 323 325 328 327 327 326 330 330 329 328 328 330 330 326 328 326 330 332
316 321 332 329 329 334 336 345 348 341 337 343 345 348 346 344 342 344 346 345 335 326 323 323 327 333 337 338 337 332 328 323 326 329 329 329 329 331 332 329 332 332 335 333 329 326 329 334 335
315 327 330 330 331 329 332 342 342 342 341 344 349 349 345 344 342 343 347 343 331 323 322 326 331 336 338 338 337 332 328 323 326 329 330 329 331 332 334 331 335 335 336 334 332 326 333 336 337
318 331 329 329 329 328 329 332 340 342 344 344 349 349 347 345 344 344 346 341 330 322 322 328 332 337 338 338 337 333 327 323 329 330 329 330 332 332 334 335 336 337 336 335 335 327 330 337 337
327 328 325 330 328 329 327 330 333 343 344 350 344 344 346 345 345 345 346 342 328 320 321 325 332 336 338 338 337 334 326 323 330 331 331 333 334 334 335 334 338 337 338 338 338 336 333 336 339
322 319 325 325 326 326 327 328 327 336 347 350 347 349 345 345 345 346 345 341 324 322 322 321 329 334 337 337 336 334 325 323 332 334 335 335 335 335 335 335 336 337 338 338 338 339 339 340 343
321 316 322 322 325 324 324 323 328 340 342 350 349 348 344 345 345 345 344 343 331 322 321 321 321 329 333 336 336 333 326 324 334 334 334 336 335 335 334 334 335 337 338 338 338 338 338 338 340
321 317 319 321 323 323 325 318 339 342 351 349 350 347 345 345 345 344 343 342 341 335 326 321 321 321 326 333 335 331 325 323 334 335 333 336 335 334 333 333 334 336 337 337 338 337 338 338 338
320 316 319 320 322 321 322 320 322 346 350 349 348 347 344 344 345 344 343 342 342 342 340 329 320 321 320 325 332 331 325 323 333 335 333 335 335 334 333 332 333 335 337 337 337 336 337 337 337
322 321 320 323 323 323 321 321 323 349 351 349 347 345 344 343 345 344 343 343 343 342 341 326 321 321 320 320 323 328 325 322 331 335 333 332 334 335 334 333 332 333 335 335 334 335 336 337 338
322 323 324 325 327 323 319 321 320 329 342 349 347 345 343 343 344 344 344 343 344 343 342 335 322 321 321 321 321 322 323 322 329 334 334 332 333 334 335 335 334 332 332 333 334 336 336 337 338
319 320 324 326 325 323 322 320 323 328 344 348 347 344 343 343 344 342 343 343 343 343 342 341 330 321 321 321 320 320 320 321 326 334 333 333 334 336 338 336 339 334 332 333 333 334 336 337 340
317 318 321 324 324 321 319 319 329 328 349 349 347 345 344 343 343 343 343 342 342 343 342 342 340 337 333 322 323 320 320 321 324 333 332 333 335 337 339 339 337 340 337 330 332 338 337 339 341
319 316 315 317 319 317 320 318 326 330 330 341 341 343 345 344 343 345 345 343 342 342 343 341 340 339 339 334 333 336 333 324 323 327 330 332 333 340 341 340 339 338 339 339 338 340 341 342 340
317 315 315 315 318 320 318 315 325 338 342 346 346 345 345 345 346 347 347 344 342 342 342 341 340 339 338 338 337 337 338 337 328 325 327 331 332 339 342 340 339 337 337 340 340 340 339 340 341
313 317 317 317 317 318 317 327 329 342 343 342 343 345 346 346 346 346 347 347 346 343 340 340 340 339 339 338 338 340 340 338 338 335 338 339 339 337 341 341 338 337 337 339 340 340 341 340 339
315 318 316 316 317 316 321 329 333 342 342 340 341 343 344 345 345 346 347 347 347 345 343 341 341 339 339 338 341 342 340 339 338 339 340 340 340 341 340 338 337 335 336 339 340 339 340 338 339
317 318 320 319 317 316 323 329 339 340 338 336 337 338 338 340 340 344 346 346 347 346 342 341 341 340 339 340 342 342 341 340 339 341 342 342 342 342 342 341 341 340 339 335 338 338 339 338 339
319 319 315 317 319 321 329 331 332 337 335 336 335 335 336 336 337 338 342 344 344 346 346 344 343 343 341 340 339 341 342 342 342 341 341 342 342 341 342 342 342 341 340 337 339 340 339 339 338
315 315 315 317 317 323 329 331 332 333 334 333 333 333 333 333 333 333 331 336 341 343 344 345 344 343 343 342 342 343 342 341 341 341 341 340 340 341 340 341 341 340 339 340 337 341 340 340 338
317 315 316 315 314 315 319 327 332 331 329 329 329 330 331 331 331 329 330 332 338 342 343 343 342 342 344 344 342 344 343 342 342 342 341 340 339 339 340 340 340 336 332 334 338 337 341 338 339
318 315 315 315 313 313 313 311 321 329 330 327 326 328 330 329 329 323 328 334 336 337 340 342 343 342 342 344 344 342 342 341 342 342 342 341 340 339 338 338 338 331 332 328 328 337 336 338 338
316 314 311 309 307 309 311 312 312 333 332 327 325 326 328 328 327 321 324 327 329 332 333 335 336 338 338 338 338 339 340 339 339 339 339 338 337 336 336 336 334 330 333 328 327 333 333 335 337
312 310 311 313 311 311 312 312 311 326 329 327 325 325 327 326 324 323 322 322 323 324 325 327 328 330 329 329 329 329 329 330 329 330 331 332 333 333 334 332 330 330 330 330 328 331 330 328 327
313 311 311 315 311 312 314 324 329 327 328 327 325 325 326 325 325 324 323 318 318 320 319 320 320 320 320 320 320 320 320 320 320 321 321 322 324 327 331 331 331 330 329 329 329 329 330 329 330
315 313 309 311 314 313 315 332 330 327 326 325 325 324 325 325 324 321 316 313 315 317 318 317 314 314 315 315 316 316 316 316 317 317 317 317 317 317 318 322 327 330 330 329 328 330 331 327 326
315 313 312 308 315 316 315 327 331 330 328 325 325 324 324 324 323 318 316 311 314 318 316 316 314 311 311 312 312 312 312 313 313 313 314 315 315 316 316 316 316 318 321 326 327 327 327 328 328
313 312 311 309 310 311 312 312 322 329 327 327 323 324 324 324 323 321 319 312 311 314 315 312 313 313 311 311 310 310 311 312 313 313 313 313 314 315 315 315 315 314 315 315 317 319 322 324 323
314 312 312 314 315 313 315 315 317 326 326 323 320 325 326 324 322 321 320 318 315 312 311 310 309 308 308 310 311 311 311 312 312 312 312 313 313 313 313 312 311 311 311 312 312 313 313 314 316
Wind_Speed
5 5 4 4 3 4 3 4 2 16 11 11 12 6 8 4 2 3 14 23 27 29 29 26 25 27 27 25 21 19 16 17 20 21 21 22 21 20 19 18 17 17 17 16 15 16 17 18 19
7 6 5 1 3 2 4 5 10 18 22 14 8 4 9 3 8 18 28 20 28 27 29 27 27 28 28 26 22 20 17 17 19 19 21 21 20 20 19 18 19 18 18 18 17 19 20 22 23
8 10 5 4 3 6 4 7 7 24 34 7 12 10 8 7 15 27 17 28 29 28 27 27 27 30 29 26 23 20 18 18 19 19 20 19 19 19 18 18 19 19 18 18 18 20 23 24 24
11 8 3 3 9 8 6 6 10 14 25 16 16 7 12 4 16 15 27 29 27 27 27 27 28 29 29 26 23 20 18 19 19 19 18 18 18 18 17 18 17 15 15 18 19 20 24 24 22
15 5 1 3 9 10 4 20 19 11 4 15 15 4 7 16 12 19 25 23 22 27 27 27 28 29 28 26 23 20 18 19 20 19 18 18 17 17 16 16 15 15 17 18 19 20 23 21 18
6 3 3 5 11 6 7 18 18 19 20 16 17 13 5 20 18 26 22 19 22 27 28 28 28 29 28 26 23 20 18 20 20 20 19 18 16 16 15 16 16 16 17 19 19 20 21 18 14
6 4 5 5 7 9 5 12 11 28 21 7 29 8 17 27 20 24 21 16 23 24 27 27 28 28 28 26 24 20 19 21 21 20 18 17 16 15 15 16 17 17 16 17 17 17 17 15 12
5 4 2 5 5 5 8 25 12 30 12 30 35 8 22 35 28 25 22 20 21 20 22 25 26 28 28 27 24 21 19 21 21 20 18 17 16 15 15 16 16 16 15 15 15 15 15 13 13
12 3 3 7 1 6 22 10 5 14 31 17 5 30 37 38 35 28 29 28 25 22 20 23 25 25 26 28 26 23 22 22 21 20 18 18 16 15 14 15 15 15 13 13 13 14 12 12 12
6 4 8 6 3 7 19 10 10 5 17 16 23 29 40 42 39 35 34 32 27 24 21 22 24 25 25 27 27 26 24 25 23 21 19 18 16 14 13 13 14 15 14 13 12 12 12 12 12
5 6 7 14 13 16 9 12 6 11 6 29 32 39 40 39 38 35 32 28 26 23 22 24 25 25 25 26 26 26 25 25 24 21 19 18 18 16 14 13 13 14 14 13 12 12 12 11 11
4 16 24 23 29 18 7 7 7 15 13 32 40 39 41 40 36 36 33 35 33 29 23 21 25 25 25 23 23 24 25 25 25 23 21 20 19 18 15 13 12 12 13 13 12 12 11 11 11
6 13 25 33 30 27 21 4 7 15 25 32 39 40 38 37 37 33 33 34 32 30 26 21 22 23 23 22 22 23 23 25 25 23 21 21 21 19 16 12 12 10 14 14 14 14 14 14 10
7 19 25 26 32 19 6 4 13 11 30 30 29 31 34 34 33 26 21 27 31 30 29 25 23 20 16 22 19 20 21 22 24 23 21 21 21 20 18 13 12 10 9 14 16 15 17 16 13
22 7 8 15 17 9 9 4 7 22 28 29 26 23 22 18 20 20 17 21 23 29 29 28 23 23 17 18 17 15 14 20 24 23 21 21 23 20 16 16 12 15 12 14 14 17 16 18 20
2 3 4 7 8 6 12 8 6 23 34 25 28 32 32 28 24 23 22 22 21 28 28 28 26 23 22 19 18 16 17 15 20 23 20 20 22 24 19 19 15 16 18 17 16 20 21 21 21
5 3 3 6 7 4 4 6 7 28 35 24 26 31 32 27 22 17 17 17 18 23 27 26 30 27 23 25 20 19 20 17 13 20 18 18 19 24 25 22 21 22 22 17 19 16 22 26 23
4 3 6 8 9 7 5 7 10 21 33 25 26 27 25 22 17 14 13 13 13 15 22 29 30 31 25 27 21 19 21 19 15 17 20 23 25 26 28 27 26 24 27 22 21 19 21 22 22
5 7 14 13 6 6 9 8 13 15 26 21 23 25 22 15 9 9 11 11 10 17 19 21 24 28 25 25 20 21 26 23 24 22 19 24 29 35 31 34 32 28 24 31 26 22 29 26 27
7 6 7 6 8 8 9 7 6 8 13 23 28 24 22 17 10 7 9 9 10 12 16 20 17 18 22 27 28 24 24 26 28 30 28 26 23 24 30 38 41 37 30 27 33 27 27 28 32
3 6 5 4 5 8 7 4 5 4 16 19 21 21 16 11 8 4 5 10 12 12 11 12 20 21 23 21 23 26 26 29 29 30 30 32 32 28 28 35 36 22 26 31 36 33 31 34 32
4 5 6 7 5 2 2 4 1 1 6 10 19 23 19 12 8 4 3 5 5 9 7 9 11 18 20 23 25 22 23 26 29 33 35 36 37 36 30 31 30 11 33 20 28 41 35 35 35
4 3 6 5 4 2 1 5 6 6 7 11 15 24 21 14 8 7 7 9 7 4 7 11 13 14 14 16 20 23 24 22 26 28 29 30 30 31 33 39 30 27 40 39 47 25 36 34 32
5 7 9 5 4 2 5 4 3 11 14 11 16 23 24 18 12 10 9 7 6 5 4 4 6 9 9 7 8 10 12 13 14 20 24 25 25 26 32 32 31 43 46 43 32 21 33 40 34
8 7 4 4 4 5 5 2 8 17 13 17 21 27 26 18 16 14 10 5 3 2 2 2 3 3 2 2 2 2 4 6 9 11 14 17 17 19 27 29 27 26 31 34 34 37 33 36 43
5 8 5 4 3 4 7 4 6 10 19 25 30 35 28 24 19 13 10 8 7 4 3 3 4 4 4 3 3 2 0 2 4 7 9 11 14 16 17 19 25 29 29 32 39 45 44 42 50
2 3 6 6 1 3 3 2 3 7 13 18 23 26 30 28 24 19 11 8 8 8 7 5 3 4 4 3 2 0 1 3 6 8 9 11 13 13 14 16 19 23 23 26 29 31 35 34 37
6 4 3 3 3 3 4 4 5 5 12 12 21 29 33 30 25 18 11 11 11 10 6 3 4 4 3 2 1 1 4 6 8 10 12 13 14 14 14 14 15 15 19 24 26 26 26 33 38
4 1 5 5 5 5 2 6 5 17 18 15 18 23 35 31 26 17 11 12 12 13 10 8 6 7 5 4 3 2 3 4 6 9 12 15 15 14 13 13 13 13 13 15 19 22 26 28 28
5 8 6 5 4 2 4 5 5 14 15 18 24 38 40 35 28 20 17 16 13 13 13 8 9 10 9 5 3 3 2 2 3 5 8 10 12 13 14 14 14 14 14 15 14 14 16 19 22
Wind_Direction
231 250 248 264 49 74 251 195 78 34 341 230 286 189 115 83 140 190 138 165 169 168 169 171 174 171 168 163 156 149 143 141 142 141 141 142 142 140 137 134 132 129 125 123 124 125 121 117 117
220 210 189 180 108 141 255 144 201 148 230 201 255 156 57 81 111 136 155 162 167 170 167 170 171 169 168 164 159 153 145 145 146 142 140 137 138 137 134 131 130 127 122 117 121 128 127 124 122
198 176 168 150 184 174 213 204 187 190 201 180 189 82 98 114 131 147 169 163 168 167 166 167 168 167 167 165 161 155 148 150 150 145 141 140 138 135 133 134 133 130 123 119 119 129 134 131 126
172 168 229 150 237 245 180 197 197 222 228 210 117 67 105 127 142 167 158 161 166 163 165 165 165 166 166 166 163 159 153 153 153 150 147 145 143 142 136 139 138 136 129 123 122 129 137 135 131
168 157 160 220 251 252 184 227 189 258 248 177 145 110 90 160 184 161 161 161 167 164 167 166 167 167 168 169 167 163 158 157 156 154 154 151 149 147 144 141 145 135 131 124 123 127 141 137 135
158 165 90 235 253 255 248 231 215 212 251 145 108 110 99 160 169 160 154 160 175 170 168 169 171 172 173 173 172 168 164 161 160 158 158 158 157 156 154 151 147 140 136 129 127 130 139 139 135
154 108 204 231 254 289 287 260 225 208 172 161 128 113 145 158 160 156 148 147 170 169 169 171 174 176 177 177 176 174 170 166 163 161 159 159 159 158 159 157 154 149 145 137 133 134 140 143 147
207 105 230 243 231 287 285 313 180 174 158 137 140 150 162 164 162 166 161 158 154 166 175 176 179 181 181 181 180 180 177 173 169 165 163 161 159 157 157 158 159 157 156 148 141 141 140 147 153
210 66 230 241 90 255 308 350 111 111 129 136 199 156 157 157 166 169 168 164 164 165 176 185 187 186 186 182 183 184 181 179 176 172 170 167 162 159 159 161 165 166 169 163 155 150 157 160 169
165 171 231 183 261 292 301 327 354 94 116 119 120 147 149 164 172 174 176 171 175 176 181 192 193 192 189 186 188 188 186 183 182 179 177 173 169 165 165 169 173 175 179 176 173 169 175 176 181
201 222 245 275 279 283 292 327 63 110 120 149 146 147 156 161 172 178 184 191 186 188 182 187 194 194 194 193 192 192 193 188 186 185 183 179 176 175 174 179 182 185 186 188 188 187 187 194 192
224 236 240 262 268 270 275 309 31 117 183 163 156 158 160 168 176 184 188 191 188 188 187 184 194 197 196 197 199 200 197 194 192 191 188 187 185 184 179 184 186 192 196 199 202 197 187 199 204
202 248 247 248 257 261 280 258 139 102 157 157 156 157 165 171 181 181 190 196 194 191 187 182 191 196 203 200 202 206 205 202 199 198 197 194 193 192 179 171 179 188 202 200 205 198 193 202 210
232 240 250 254 253 254 239 173 124 131 146 148 155 165 169 175 184 186 188 193 202 201 196 187 187 182 185 196 203 205 209 211 208 207 206 205 203 207 204 188 209 217 211 207 207 201 198 209 219
252 266 271 247 236 228 220 284 138 147 119 116 130 157 162 164 143 137 138 168 188 206 203 192 190 198 191 189 190 193 201 215 218 218 215 216 215 209 220 211 231 236 243 238 226 213 218 237 220
353 156 191 273 168 233 149 239 159 123 117 103 108 119 126 131 126 118 132 147 172 199 211 202 197 207 204 203 199 207 219 225 226 224 223 217 218 215 217 217 232 241 247 251 241 238 241 227 220
6 250 243 293 214 130 111 148 119 127 122 108 109 112 118 122 130 130 130 138 158 178 200 210 206 210 212 213 214 225 226 227 231 222 220 222 221 218 219 223 230 231 236 246 239 254 229 223 224
236 277 268 228 239 149 132 157 131 131 124 121 119 120 120 122 120 134 144 148 166 165 189 210 213 208 211 212 220 221 224 226 226 232 245 250 246 238 233 240 237 237 237 240 234 234 222 214 214
243 287 256 238 218 118 169 139 151 136 117 117 119 118 114 119 127 150 162 174 172 164 168 183 195 203 214 209 214 210 217 221 228 233 242 245 248 246 248 239 238 242 243 241 237 232 232 218 214
269 235 354 359 18 88 144 147 124 126 125 135 131 127 125 128 134 153 193 204 212 197 189 194 191 187 210 217 226 225 222 223 226 233 238 245 248 245 239 233 234 236 243 244 236 233 235 228 211
91 82 37 43 346 54 100 34 125 110 126 126 133 133 136 140 136 143 185 210 217 217 220 224 220 222 224 222 228 231 236 240 240 247 250 251 254 249 249 243 236 249 243 254 245 239 226 229 215
88 126 81 49 64 172 99 219 148 195 112 126 135 137 135 146 141 124 123 178 209 220 214 223 217 232 235 232 235 236 239 249 251 248 252 255 258 265 263 252 252 296 288 292 270 239 234 234 234
151 100 101 126 88 27 14 104 253 144 163 171 159 145 145 154 154 127 104 97 114 150 212 233 237 236 244 244 252 253 257 256 256 257 257 262 270 272 274 268 265 287 272 253 301 257 238 234 240
124 50 30 57 108 91 247 142 258 190 198 171 172 149 151 154 151 139 131 121 121 131 148 184 224 238 247 257 267 262 265 271 271 269 272 269 272 268 275 263 256 262 263 254 285 263 242 242 244
77 60 3 359 13 212 253 103 230 216 191 176 159 154 161 163 161 157 146 145 158 148 136 164 167 169 158 195 202 226 248 261 274 276 280 278 273 275 264 266 265 258 258 250 243 252 257 256 259
164 140 150 202 202 259 310 266 287 306 159 155 157 162 165 163 162 171 172 175 178 179 187 167 153 152 145 144 138 126 96 288 294 299 300 301 300 294 286 278 276 270 266 263 257 264 260 266 252
161 96 177 120 27 75 261 305 349 16 115 140 149 157 165 172 173 184 181 198 194 188 193 204 204 199 177 173 166 192 296 299 303 308 312 312 310 309 304 294 284 280 282 277 273 264 259 253 248
126 160 43 13 157 201 281 246 211 217 166 152 163 171 175 178 177 179 187 208 213 221 217 223 208 199 187 186 211 269 310 313 308 305 307 307 305 307 309 308 301 291 278 272 271 271 269 260 259
33 31 75 119 137 163 220 266 218 192 188 181 171 170 177 182 186 183 192 211 218 223 231 238 237 236 215 215 250 300 310 299 305 309 309 309 311 313 314 313 312 309 304 292 287 281 274 269 267
176 200 136 128 233 175 160 268 292 190 188 163 166 184 187 188 189 190 199 194 201 209 211 213 238 228 230 209 228 263 254 266 303 307 300 303 309 311 315 317 313 311 307 302 295 282 281 280 276